sat.trackr.live / text

‹ back to catalog

STARLINK-37180

NORAD 68333 · 2026-059N

PAYLOAD ACTIVE UNKNOWN

§ Identity

Operator
Country
US
Launch date
2026-03-22
Launch site
AFETR
Launch vehicle
Mass (kg)
RCS (m²)

Purposes: comms

External: N2YO · Heavens-Above · Gunter

§ Orbital elements

Epoch: 2026-05-24T20:19:17.515200Z

Period
92.94 min
Inclination
53.1592°
Eccentricity
0.0000847
Mean motion
15.49337287 rev/d
Perigee alt
418.1 km
Apogee alt
419.2 km
Semi-major
6,796.8 km
B*
1.2771e-3
RAAN
351.1250°
Arg perigee
84.6855°
Mean anomaly
275.4251°
Rev number
988

§ Raw data

STARLINK-371801 68333U 26059N   26144.84673050  .00071302  00000+0  12771-2 0  99972 68333  53.1592 351.1250 0000847  84.6855 275.4251 15.49337287  9882

JSON: /api/v1/satellites/68333 · /tle

For live sub-satellite position, see the globe view (requires WebGL).

§ Visibility from observer

Set your observer location to see the next 7 days of passes ≥ 10°. The values pass through the URL so the page stays shareable.

No JS? Fill the form by hand. The geolocation button needs JavaScript.